Time,TemperatureF,DewpointF,PressureIn,WindDirection,WindDirectionDegrees,WindSpeedMPH,WindSpeedGustMPH,Humidity,HourlyPrecipIn,Conditions,Clouds,dailyrainin,SoftwareType,DateUTC
2013-04-23 00:03:00,38.0,37.0,30.59,NE,56,6.0,27.0,95,0.00,,,0.00,,2013-04-23 04:03:00,
2013-04-23 00:13:00,38.0,37.0,30.59,NE,56,6.0,27.0,95,0.00,,,0.00,,2013-04-23 04:13:00,
2013-04-23 00:23:00,38.0,37.0,30.58,NE,42,6.0,9.0,95,0.00,,,0.00,,2013-04-23 04:23:00,
2013-04-23 00:33:00,38.0,37.0,30.58,NE,42,6.0,9.0,95,0.00,,,0.00,,2013-04-23 04:33:00,
2013-04-23 00:44:00,38.0,37.0,30.58,NE,42,6.0,9.0,95,0.00,,,0.00,,2013-04-23 04:44:00,
2013-04-23 00:53:00,38.0,37.0,30.56,NE,54,1.0,27.0,96,0.00,,,0.00,,2013-04-23 04:53:00,
2013-04-23 01:02:00,38.0,37.0,30.56,NE,54,1.0,27.0,96,0.00,,,0.00,,2013-04-23 05:02:00,
2013-04-23 01:12:00,38.0,37.0,30.56,NE,54,1.0,27.0,96,0.00,,,0.00,,2013-04-23 05:12:00,
2013-04-23 01:22:00,38.0,37.0,30.55,ENE,68,2.0,27.0,96,0.00,,,0.00,,2013-04-23 05:22:00,
2013-04-23 01:32:00,38.0,37.0,30.55,ENE,68,2.0,27.0,96,0.00,,,0.00,,2013-04-23 05:32:00,
2013-04-23 01:42:00,38.0,37.0,30.55,ENE,68,2.0,27.0,96,0.00,,,0.00,,2013-04-23 05:42:00,
2013-04-23 01:52:00,38.0,37.0,30.54,NE,34,4.0,27.0,96,0.00,,,0.00,,2013-04-23 05:52:00,
2013-04-23 02:02:00,38.0,37.0,30.54,NE,34,4.0,27.0,96,0.00,,,0.00,,2013-04-23 06:02:00,
2013-04-23 02:12:00,38.0,37.0,30.54,NE,34,4.0,27.0,96,0.00,,,0.00,,2013-04-23 06:12:00,
2013-04-23 02:21:00,38.0,37.0,30.52,NNE,19,5.0,27.0,96,0.00,,,0.00,,2013-04-23 06:21:00,
2013-04-23 02:33:00,38.0,37.0,30.52,NNE,19,5.0,27.0,96,0.00,,,0.00,,2013-04-23 06:33:00,
2013-04-23 02:42:00,38.0,37.0,30.52,NNE,19,5.0,27.0,96,0.00,,,0.00,,2013-04-23 06:42:00,
2013-04-23 02:52:00,38.0,37.0,30.50,NNE,13,4.0,27.0,97,0.00,,,0.00,,2013-04-23 06:52:00,
2013-04-23 03:02:00,38.0,37.0,30.50,NNE,13,4.0,27.0,97,0.00,,,0.00,,2013-04-23 07:02:00,
2013-04-23 03:11:00,38.0,37.0,30.50,NNE,13,4.0,27.0,97,0.00,,,0.00,,2013-04-23 07:11:00,
2013-04-23 03:21:00,38.0,37.0,30.50,NE,37,7.0,27.0,97,0.00,,,0.00,,2013-04-23 07:21:00,
2013-04-23 03:32:00,38.0,37.0,30.50,NE,37,7.0,27.0,97,0.00,,,0.00,,2013-04-23 07:32:00,
2013-04-23 03:42:00,38.0,37.0,30.50,NE,37,7.0,27.0,97,0.00,,,0.00,,2013-04-23 07:42:00,
2013-04-23 03:52:00,38.0,37.0,30.49,NE,41,2.0,27.0,98,0.00,,,0.00,,2013-04-23 07:52:00,
2013-04-23 04:02:00,38.0,37.0,30.49,NE,41,2.0,27.0,98,0.00,,,0.00,,2013-04-23 08:02:00,
2013-04-23 04:11:00,38.0,37.0,30.49,NE,41,2.0,27.0,98,0.00,,,0.00,,2013-04-23 08:11:00,
2013-04-23 04:21:00,38.0,37.0,30.48,NE,41,6.0,27.0,98,0.00,,,0.00,,2013-04-23 08:21:00,
2013-04-23 04:32:00,38.0,37.0,30.48,NE,41,6.0,27.0,98,0.00,,,0.00,,2013-04-23 08:32:00,
2013-04-23 04:42:00,38.0,37.0,30.48,NE,41,6.0,27.0,98,0.00,,,0.00,,2013-04-23 08:42:00,
2013-04-23 04:52:00,38.0,38.0,30.47,NE,46,7.0,27.0,99,0.00,,,0.00,,2013-04-23 08:52:00,
2013-04-23 05:02:00,38.0,38.0,30.47,NE,46,7.0,27.0,99,0.00,,,0.00,,2013-04-23 09:02:00,
2013-04-23 05:11:00,38.0,38.0,30.47,NE,46,7.0,27.0,99,0.00,,,0.00,,2013-04-23 09:11:00,
2013-04-23 05:21:00,38.0,38.0,30.47,NE,39,7.0,27.0,99,0.00,,,0.00,,2013-04-23 09:21:00,
2013-04-23 05:33:00,38.0,38.0,30.47,NE,39,7.0,27.0,99,0.00,,,0.00,,2013-04-23 09:33:00,
2013-04-23 05:43:00,38.0,38.0,30.47,NE,39,7.0,27.0,99,0.00,,,0.00,,2013-04-23 09:43:00,
2013-04-23 05:53:00,38.0,38.0,30.46,NE,35,3.0,27.0,99,0.00,,,0.00,,2013-04-23 09:53:00,
2013-04-23 06:03:00,38.0,38.0,30.46,NE,35,3.0,27.0,99,0.00,,,0.00,,2013-04-23 10:03:00,
2013-04-23 06:13:00,38.0,38.0,30.46,NE,35,3.0,27.0,99,0.00,,,0.00,,2013-04-23 10:13:00,
2013-04-23 06:23:00,37.0,37.0,30.45,NE,44,8.0,27.0,99,0.00,,,0.00,,2013-04-23 10:23:00,
2013-04-23 06:33:00,37.0,37.0,30.45,NE,44,8.0,27.0,99,0.00,,,0.00,,2013-04-23 10:33:00,
2013-04-23 06:43:00,37.0,37.0,30.45,NE,44,8.0,27.0,99,0.00,,,0.00,,2013-04-23 10:43:00,
2013-04-23 06:52:00,37.0,37.0,30.45,NNE,32,7.0,27.0,99,0.00,,,0.00,,2013-04-23 10:52:00,
2013-04-23 07:03:00,37.0,37.0,30.45,NNE,32,7.0,27.0,99,0.00,,,0.00,,2013-04-23 11:03:00,
2013-04-23 07:12:00,37.0,37.0,30.45,NE,38,4.0,27.0,99,0.00,,,0.00,,2013-04-23 11:12:00,
2013-04-23 07:21:00,37.0,37.0,30.45,NE,38,4.0,27.0,99,0.00,,,0.00,,2013-04-23 11:21:00,
2013-04-23 07:32:00,37.0,37.0,30.45,NE,38,4.0,27.0,99,0.00,,,0.00,,2013-04-23 11:32:00,
2013-04-23 07:43:00,37.0,37.0,30.44,NNE,33,10.0,27.0,99,0.00,,,0.00,,2013-04-23 11:43:00,
2013-04-23 07:53:00,37.0,37.0,30.44,NNE,33,10.0,27.0,99,0.00,,,0.00,,2013-04-23 11:53:00,
2013-04-23 08:02:00,37.0,37.0,30.44,NNE,33,10.0,27.0,99,0.00,,,0.00,,2013-04-23 12:02:00,
2013-04-23 08:12:00,37.0,37.0,30.44,NNE,33,10.0,27.0,99,0.00,,,0.00,,2013-04-23 12:12:00,
2013-04-23 08:22:00,37.0,37.0,30.44,NE,38,8.0,27.0,99,0.00,,,0.00,,2013-04-23 12:22:00,
2013-04-23 08:32:00,37.0,37.0,30.44,NE,38,8.0,27.0,99,0.00,,,0.00,,2013-04-23 12:32:00,
2013-04-23 08:42:00,37.0,37.0,30.44,NE,38,8.0,27.0,99,0.00,,,0.00,,2013-04-23 12:42:00,
2013-04-23 08:52:00,37.0,37.0,30.42,NNE,24,6.0,27.0,99,0.00,,,0.00,,2013-04-23 12:52:00,
2013-04-23 09:01:00,37.0,37.0,30.42,NNE,24,6.0,27.0,99,0.00,,,0.00,,2013-04-23 13:01:00,
2013-04-23 09:12:00,37.0,37.0,30.42,NNE,24,6.0,27.0,99,0.00,,,0.00,,2013-04-23 13:12:00,
2013-04-23 09:22:00,37.0,37.0,30.42,NE,47,10.0,27.0,99,0.00,,,0.00,,2013-04-23 13:22:00,
2013-04-23 09:32:00,37.0,37.0,30.42,NE,47,10.0,27.0,99,0.00,,,0.00,,2013-04-23 13:32:00,
2013-04-23 09:42:00,37.0,37.0,30.42,NE,47,10.0,27.0,99,0.00,,,0.00,,2013-04-23 13:42:00,
2013-04-23 09:52:00,38.0,38.0,30.42,NNE,23,8.0,27.0,99,0.00,,,0.00,,2013-04-23 13:52:00,
2013-04-23 10:02:00,38.0,38.0,30.42,NNE,23,8.0,27.0,99,0.00,,,0.00,,2013-04-23 14:02:00,
2013-04-23 10:11:00,38.0,38.0,30.42,NNE,23,8.0,27.0,99,0.00,,,0.00,,2013-04-23 14:11:00,
2013-04-23 10:22:00,38.0,38.0,30.41,NNE,33,9.0,27.0,99,0.00,,,0.00,,2013-04-23 14:22:00,
2013-04-23 10:32:00,38.0,38.0,30.41,NNE,33,9.0,27.0,99,0.00,,,0.00,,2013-04-23 14:32:00,
2013-04-23 10:42:00,38.0,38.0,30.41,NNE,33,9.0,27.0,99,0.00,,,0.00,,2013-04-23 14:42:00,
2013-04-23 10:52:00,38.0,38.0,30.41,NNE,25,8.0,27.0,99,0.00,,,0.00,,2013-04-23 14:52:00,
2013-04-23 11:01:00,38.0,38.0,30.41,NNE,25,8.0,27.0,99,0.00,,,0.00,,2013-04-23 15:01:00,
2013-04-23 11:02:00,39.0,39.0,30.40,NE,51,10.0,27.0,99,0.00,,,0.00,,2013-04-23 15:02:00,
2013-04-23 11:12:00,38.0,38.0,30.41,NNE,25,8.0,27.0,99,0.00,,,0.00,,2013-04-23 15:12:00,
2013-04-23 11:21:00,39.0,39.0,30.40,NE,51,10.0,27.0,99,0.00,,,0.00,,2013-04-23 15:21:00,
2013-04-23 11:32:00,39.0,39.0,30.40,NE,51,10.0,27.0,99,0.00,,,0.00,,2013-04-23 15:32:00,
2013-04-23 11:43:00,39.0,39.0,30.40,NE,51,10.0,27.0,99,0.00,,,0.00,,2013-04-23 15:43:00,
2013-04-23 11:53:00,39.0,39.0,30.40,NE,51,10.0,27.0,99,0.00,,,0.00,,2013-04-23 15:53:00,
2013-04-23 12:23:00,41.0,41.0,30.37,NNE,29,6.0,27.0,99,0.00,,,0.00,,2013-04-23 16:23:00,
2013-04-23 12:34:00,41.0,41.0,30.37,NNE,29,6.0,27.0,99,0.00,,,0.00,,2013-04-23 16:34:00,
2013-04-23 12:43:00,41.0,41.0,30.37,NNE,29,6.0,27.0,99,0.00,,,0.00,,2013-04-23 16:43:00,
2013-04-23 12:53:00,42.0,42.0,30.36,NE,48,12.0,27.0,99,0.00,,,0.00,,2013-04-23 16:53:00,
2013-04-23 13:02:00,42.0,42.0,30.36,NE,48,12.0,27.0,99,0.00,,,0.00,,2013-04-23 17:02:00,
2013-04-23 13:12:00,42.0,42.0,30.35,NE,42,8.0,27.0,99,0.00,,,0.00,,2013-04-23 17:12:00,
2013-04-23 13:22:00,42.0,42.0,30.35,NE,42,8.0,27.0,99,0.00,,,0.00,,2013-04-23 17:22:00,
2013-04-23 13:32:00,42.0,42.0,30.35,NE,42,8.0,27.0,99,0.00,,,0.00,,2013-04-23 17:32:00,
2013-04-23 13:43:00,42.0,42.0,30.35,NE,42,8.0,27.0,99,0.00,,,0.00,,2013-04-23 17:43:00,
2013-04-23 13:53:00,42.0,42.0,30.32,NE,48,6.0,27.0,99,0.00,,,0.00,,2013-04-23 17:53:00,
2013-04-23 14:02:00,42.0,42.0,30.32,NE,48,6.0,27.0,99,0.00,,,0.00,,2013-04-23 18:02:00,
2013-04-23 14:12:00,42.0,42.0,30.32,NE,48,6.0,27.0,99,0.00,,,0.00,,2013-04-23 18:12:00,
2013-04-23 14:22:00,42.0,42.0,30.32,NE,48,6.0,27.0,99,0.00,,,0.00,,2013-04-23 18:22:00,
2013-04-23 14:52:00,42.0,42.0,30.29,NNE,28,7.0,27.0,99,0.00,,,0.00,,2013-04-23 18:52:00,
2013-04-23 15:02:00,42.0,42.0,30.29,NNE,28,7.0,27.0,99,0.00,,,0.00,,2013-04-23 19:02:00,
2013-04-23 15:11:00,42.0,42.0,30.29,NNE,28,7.0,27.0,99,0.00,,,0.00,,2013-04-23 19:11:00,
2013-04-23 15:22:00,42.0,42.0,30.27,NNE,24,8.0,27.0,99,0.00,,,0.00,,2013-04-23 19:22:00,
2013-04-23 15:32:00,42.0,42.0,30.27,NNE,24,8.0,27.0,99,0.00,,,0.00,,2013-04-23 19:32:00,
2013-04-23 15:42:00,42.0,42.0,30.27,NNE,24,8.0,27.0,99,0.00,,,0.00,,2013-04-23 19:42:00,
2013-04-23 15:52:00,42.0,42.0,30.27,NNE,24,8.0,27.0,99,0.00,,,0.00,,2013-04-23 19:52:00,
2013-04-23 16:22:00,42.0,42.0,30.25,NE,41,9.0,27.0,99,0.00,,,0.00,,2013-04-23 20:22:00,
2013-04-23 16:32:00,42.0,42.0,30.25,NE,41,9.0,27.0,99,0.00,,,0.00,,2013-04-23 20:32:00,
2013-04-23 16:42:00,42.0,42.0,30.25,NE,41,9.0,27.0,99,0.00,,,0.00,,2013-04-23 20:42:00,
2013-04-23 16:52:00,42.0,42.0,30.25,NNE,15,10.0,27.0,99,0.00,,,0.00,,2013-04-23 20:52:00,
2013-04-23 17:02:00,42.0,42.0,30.25,NNE,15,10.0,27.0,99,0.00,,,0.00,,2013-04-23 21:02:00,
2013-04-23 17:12:00,42.0,42.0,30.25,NNE,15,10.0,27.0,99,0.00,,,0.00,,2013-04-23 21:12:00,
2013-04-23 17:22:00,42.0,42.0,30.23,NE,36,8.0,27.0,99,0.00,,,0.00,,2013-04-23 21:22:00,
2013-04-23 17:33:00,42.0,42.0,30.23,NE,36,8.0,27.0,99,0.00,,,0.00,,2013-04-23 21:33:00,
2013-04-23 17:43:00,42.0,42.0,30.23,NE,36,8.0,27.0,99,0.00,,,0.00,,2013-04-23 21:43:00,
2013-04-23 17:52:00,42.0,42.0,30.22,North,5,9.0,27.0,99,0.00,,,0.00,,2013-04-23 21:52:00,
2013-04-23 18:03:00,42.0,42.0,30.22,North,5,9.0,27.0,99,0.00,,,0.00,,2013-04-23 22:03:00,
2013-04-23 18:12:00,42.0,42.0,30.22,North,5,9.0,27.0,99,0.00,,,0.00,,2013-04-23 22:12:00,
2013-04-23 18:22:00,42.0,42.0,30.22,NE,42,11.0,27.0,99,0.00,,,0.00,,2013-04-23 22:22:00,
2013-04-23 18:33:00,42.0,42.0,30.22,NE,42,11.0,27.0,99,0.00,,,0.00,,2013-04-23 22:33:00,
2013-04-23 18:42:00,42.0,42.0,30.22,NE,42,11.0,27.0,99,0.00,,,0.00,,2013-04-23 22:42:00,
2013-04-23 18:52:00,42.0,42.0,30.19,NNE,20,11.0,27.0,99,0.00,,,0.00,,2013-04-23 22:52:00,
2013-04-23 19:03:00,42.0,42.0,30.19,NNE,20,11.0,27.0,99,0.00,,,0.00,,2013-04-23 23:03:00,
2013-04-23 19:12:00,42.0,42.0,30.19,NNE,20,11.0,27.0,99,0.00,,,0.00,,2013-04-23 23:12:00,
2013-04-23 19:22:00,41.0,41.0,30.19,North,10,10.0,29.0,99,0.00,,,0.00,,2013-04-23 23:22:00,
2013-04-23 19:32:00,41.0,41.0,30.19,North,10,10.0,29.0,99,0.00,,,0.00,,2013-04-23 23:32:00,
2013-04-23 19:42:00,41.0,41.0,30.17,NNE,20,9.0,29.0,99,0.00,,,0.00,,2013-04-23 23:42:00,
2013-04-23 19:52:00,41.0,41.0,30.17,NNE,20,9.0,29.0,99,0.00,,,0.00,,2013-04-23 23:52:00,
2013-04-23 20:01:00,41.0,41.0,30.17,NNE,20,9.0,29.0,99,0.00,,,0.00,,2013-04-24 00:01:00,
2013-04-23 20:11:00,41.0,41.0,30.17,NNE,20,9.0,29.0,99,0.00,,,0.00,,2013-04-24 00:11:00,
2013-04-23 20:22:00,41.0,41.0,30.17,NNE,22,9.0,29.0,99,0.00,,,0.00,,2013-04-24 00:22:00,
2013-04-23 20:32:00,41.0,41.0,30.17,NNE,22,9.0,29.0,99,0.00,,,0.00,,2013-04-24 00:32:00,
2013-04-23 20:42:00,41.0,41.0,30.17,NNE,22,9.0,29.0,99,0.00,,,0.00,,2013-04-24 00:42:00,
2013-04-23 20:52:00,41.0,41.0,30.15,NNE,22,9.0,29.0,99,0.00,,,0.00,,2013-04-24 00:52:00,
2013-04-23 21:02:00,41.0,41.0,30.15,NNE,22,9.0,29.0,99,0.00,,,0.00,,2013-04-24 01:02:00,
2013-04-23 21:11:00,41.0,41.0,30.15,NNE,22,9.0,29.0,99,0.00,,,0.00,,2013-04-24 01:11:00,
2013-04-23 21:21:00,41.0,41.0,30.14,NNE,27,5.0,29.0,99,0.00,,,0.00,,2013-04-24 01:21:00,
2013-04-23 21:32:00,41.0,41.0,30.14,NNE,27,5.0,29.0,99,0.00,,,0.00,,2013-04-24 01:32:00,
2013-04-23 21:43:00,41.0,41.0,30.14,NNE,27,5.0,29.0,99,0.00,,,0.00,,2013-04-24 01:43:00,
2013-04-23 21:52:00,41.0,41.0,30.14,NNE,23,10.0,29.0,99,0.00,,,0.00,,2013-04-24 01:52:00,
2013-04-23 22:02:00,41.0,41.0,30.14,NNE,23,10.0,29.0,99,0.00,,,0.00,,2013-04-24 02:02:00,
2013-04-23 22:20:00,41.0,41.0,30.14,North,1,11.0,29.0,99,0.00,,,0.00,,2013-04-24 02:20:00,
2013-04-23 22:30:00,41.0,41.0,30.14,North,1,11.0,29.0,99,0.00,,,0.00,,2013-04-24 02:30:00,
2013-04-23 22:39:00,41.0,41.0,30.14,North,1,11.0,29.0,99,0.00,,,0.00,,2013-04-24 02:39:00,
2013-04-23 22:50:00,41.0,41.0,30.14,North,1,11.0,29.0,99,0.00,,,0.00,,2013-04-24 02:50:00,
2013-04-23 23:01:00,41.0,41.0,30.12,NE,36,11.0,29.0,99,0.00,,,0.00,,2013-04-24 03:01:00,
2013-04-23 23:10:00,41.0,41.0,30.12,NE,36,11.0,29.0,99,0.00,,,0.00,,2013-04-24 03:10:00,
2013-04-23 23:18:00,41.0,41.0,30.12,NE,36,11.0,29.0,99,0.00,,,0.00,,2013-04-24 03:18:00,
2013-04-23 23:30:00,41.0,41.0,30.10,NNE,23,14.0,29.0,99,0.00,,,0.00,,2013-04-24 03:30:00,
2013-04-23 23:41:00,41.0,41.0,30.10,NNE,23,14.0,29.0,99,0.00,,,0.00,,2013-04-24 03:41:00,
2013-04-23 23:54:00,41.0,41.0,30.10,NNE,23,14.0,29.0,99,0.00,,,0.00,,2013-04-24 03:54:00,